Regional Weather Roundup
Issued by NWS Upton, NY

Current Version | Previous Version | Text Only | Print | Product List | Glossary On
Versions: 1 2 3 4 5 6 7 8 9 10 11 12 13 14 15 16 17 18 19 20 21 22 23 24 25 26 27 28 29 30 31 32 33 34 35 36 37 38 39 40 41 42 43 44 45 46 47 48 49 50
000
ASUS41 KOKX 231809
RWROKX

REGIONAL WEATHER ROUNDUP
NATIONAL WEATHER SERVICE NEW YORK NY
200 PM EDT SAT SEP 23 2017

NOTE: "FAIR" INDICATES FEW OR NO CLOUDS BELOW 12,000 FEET WITH NO
SIGNIFICANT WEATHER AND/OR OBSTRUCTIONS TO VISIBILITY.

NYZ071-072-176-178-NJZ106-104-231900-
NEW YORK CITY METRO AREA

CITY           SKY/WX    TMP DP  RH WIND       PRES   REMARKS
Central Park   SUNNY     86  50  28 VRB5      30.05F
Bronx Bot Gard   N/A     82  50  32 NW3       30.05F
LaGuardia APRT MOSUNNY   83  52  34 N14       30.02F
Kennedy INTL   MOSUNNY   86  59  39 N14       30.02F
Breezy Point     N/A     81 N/A N/A N13         N/A
Newark/Liberty MOSUNNY   88  56  33 N13       30.02F
Teterboro      SUNNY     86  53  32 NE7       30.01F
$$

NYZ177-179-078>081-231900-
LONG ISLAND NEW YORK

CITY           SKY/WX    TMP DP  RH WIND       PRES   REMARKS
Jones Beach      N/A     81 N/A N/A N14         N/A
Matinecock PT    N/A     79 N/A N/A NE8         N/A
Farmingdale    SUNNY     83  63  50 N12       30.01F
MacArthur/ISP  MOSUNNY   84  64  50 N12       30.00F
Shirley        SUNNY     84  65  52 N8        30.01F
Mt Sinai Harb    N/A     79 N/A N/A NW1         N/A
Westhampton    SUNNY     81  62  52 N15G23    30.02S
East Hampton   FAIR      78  64  61 N12       29.99S
Montauk          N/A     76  66  71 N6        30.01R
$$

NYZ052-065-067-231900-
HUDSON VALLEY

CITY           SKY/WX    TMP DP  RH WIND       PRES   REMARKS
White Plains   SUNNY     84  52  33 N13       30.03F
Larchmont Harb   N/A     81 N/A N/A NW3         N/A
Croton On Huds   N/A     86 N/A N/A NW10        N/A
Newburgh       SUNNY     82  55  39 NE6       30.07F
Montgomery     SUNNY     82  60  47 CALM      30.05F
Poughkeepsie   SUNNY     82  53  36 NW7       30.04F
Albany         MOSUNNY   81  53  37 N7        30.07F
$$

NJZ001-105-106-008-010-013-015-019>022-104-231900-
NEW JERSEY

CITY           SKY/WX    TMP DP  RH WIND       PRES   REMARKS
Newark/Liberty MOSUNNY   88  56  33 N13       30.02F
Teterboro      SUNNY     86  53  32 NE7       30.01F
Caldwell       SUNNY     85  57  38 VRB6      30.03F
Somerville     NOT AVBL
Linden         FAIR      87  55  33 NE12      30.03F
Perth Amboy      N/A     82 N/A N/A N7G14       N/A
Sussex         SUNNY     83  58  42 W5        30.06F
Andover          N/A     84  58  40 VRB6      30.07F
Trenton        SUNNY     86  61  42 VRB5      30.03F
Millville      MOSUNNY   87  66  49 N9        30.03F
Atlantic City  SUNNY     85  65  51 NE10      30.02F
Wrightstown    SUNNY     85  63  48 N10       30.00F
Toms River     SUNNY     85  63  47 NE16      30.03F
Belmar         SUNNY     84  61  45 N16       30.04F
$$

PAZ047>061-062-071-231900-
EASTERN PENNSYLVANIA

CITY           SKY/WX    TMP DP  RH WIND       PRES   REMARKS
Philadelphia   MOSUNNY   86  61  42 N5        30.04F
Allentown      SUNNY     86  57  37 NW6       30.06F
Scranton       SUNNY     82  57  42 NE6       30.11F
$$

CTZ002-004>006-009-010-012-RIZ004-006-007-MAZ004-011-015-231900-
SOUTHERN NEW ENGLAND
 IN CT

CITY           SKY/WX    TMP DP  RH WIND       PRES   REMARKS
Bradley INTL   MOSUNNY   85  52  32 NE12      30.02F
Hartford       SUNNY     83  59  44 N9        30.01F
Danbury        SUNNY     83  54  36 N10       30.05F
Wtrbury/Oxford SUNNY     81  62  52 N6        30.05S
Norwalk Harbor   N/A     81 N/A N/A N14         N/A
Bridgeport     SUNNY     86  62  44 N8        30.00F
Meriden        SUNNY     85  59  41 N7        30.01F
New Haven      SUNNY     85  61  44 N15       30.00F
Chester        FAIR      84  64  51 VRB6G14   30.02F
Groton         SUNNY     83  65  54 N14       29.99S
Wilimantic     PTSUNNY   84  65  52 N7        30.01S

 IN RI

CITY           SKY/WX    TMP DP  RH WIND       PRES   REMARKS
Providence     MOSUNNY   79  66  64 NE12      30.01S
Block Island   MOSUNNY   73  66  78 NE16G24   29.99F
Westerly       SUNNY     83  66  56 N12G18    29.99S
 IN MA

CITY           SKY/WX    TMP DP  RH WIND       PRES   REMARKS
Boston         MOSUNNY   73  61  65 E13       30.01F
Worcester      SUNNY     78  59  51 VRB6      30.05F
Westfield      SUNNY     84  54  35 NE12      30.02F
Provincetown   CLOUDY    62  61  96 N10       30.01S
Nantucket      LGT RAIN  62  62 100 N20       29.96S VSB 3/4
$$

ANZ330-335-338-340-345-350-353-355-231900-
COASTAL MARINE OBSERVATIONS


STATION/POSITION TIME  SKY/WX   TEMP    WIND        PRES    VSBY  WAVE
                                AIR SEA DIR/SP/G                  HT/PER
                 (UTC)          (F)     (DEG/KT/KT) (MB)    (MI)  (FT/S)
NY HARB ENTRANCE 1650            73 71  330/ 12/ 14 1016.1          3/ 9
20 S FIRE ISLAND 1750            70 67  330/  6/  8 1016.0          5/ 7
GREAT SOUTH BAY  1730            77 70   20/ 10/ 14   N/A
23 SSW MONTAUK P 1750            67 63              1015.7          5/ 7
15 E BARNEGAT LI 1730               70                N/A           5/11
HUDSON CANYON    1750            69 68  360/ 16/ 19 1014.6          7/15
KINGS POINT      1748            78 71   40/  4/  8 1017.4
EXECUTION ROCKS  1745            79      20/  8/ 12   N/A
WESTERN LI SOUND NOT AVBL
CENTRAL LI SOUND 1715            74      10/  4/  6   N/A           1
EASTERN LI SOUND NOT AVBL
ROBBINS REEF     1748            81      30/ 16/ 18 1017.2
$$


>>>>>>>>>>>>>>>>>>>>>>>>>>>> KEY <<<<<<<<<<<<<<<<<<<<<<<<<<<
>                                                          <
>     SKY/WX - Sky Condition/Present Weather               <
>     TMP    - Temperature in Fahrenheit                   <
>     DP     - Dew Point in Fahrenheit                     <
>     RH     - Relative Humidity in Percent                <
>     WIND   - Direction (from) and Speed in MPH           <
>     PRES   - Mean Sea Level Pressure (inches of Hg)      <
>     WCI    - Wind Chill Index                            <
>     VSB    - VISIBILITY IN MILES                         <
>     HX     - HEAT INDEX                                  <
>     TC     - TEMPERATURE IN CELSIUS                      <
>     VRB    - VARIABLE WIND DIRECTION                     <
>                                                          <
>>>>>>>>>>>>>>>>>>>>>>>>>>>> KEY <<<<<<<<<<<<<<<<<<<<<<<<<<<



USA.gov is the U.S. government's official web portal to all federal, state and local government web resources and services.